CZ-6A DEB

Satellite information

Favourite Embed

Satellite Type and Status

DEBRISIN ORBIT

Key statistics

Satellite CZ-6A DEB at a glance.

Uptime

390

Days in orbit

Revolutions

≈ 14.2

Per day

Orbit

LEO

Low Earth Orbit

Inclination

89.0

Latest

Satellite identification and parameters

Extended collection of information and parameters for CZ-6A DEB.

Object identification

Identified? True

Debris? True

Object name: CZ-6A DEB

International designator: 2024-140VZ

Object number (NORAD): 61360

Object ID (CCSDS): 61360

Country: PEOPLES REPUBLIC OF CHINA (PRC)

Current information (Y/N): Y

RCS size: SMALL

Orbital parameters

Period: 101.481 minutes

Inclination: 89.023 deg

SMA: 7206.946 km

Apoapsis: 866.268 km

Periapsis: 791.353 km

RAAN: 308.4468 deg

Eccentricy: 0.00519746

Argument of periapsis: 55.8279 deg

Mean anomaly: 304.7822 deg

Mean motion: 14.18978761 rev/day

Mean motion (dot): 0.00001208 rev/day2

B* drag term: 0.00056517259 1/REarth

Two-line elements (TLE)

Creation date: Aug. 31, 2025, 2:26 a.m.

Reference frame: TEME

Reference center: EARTH

Epoch: Aug. 30, 2025, 2:47 p.m. UTC

TLE line 0: 0 CZ-6A DEB

TLE line 1: 1 61360U 24140VZ 25242.61663840 .00001208 00000-0 56517-3 0 9994

TLE line 2: 2 61360 89.0230 308.4468 0051975 55.8279 304.7822 14.18978761 51190

Live tracking on map

Real-time ground track for satellite CZ-6A DEB.

In-orbit conjunctions

A list of the most updated potential collisions computed for object CZ-6A DEB.

Target Orbit TCA Probability of collision Miss distance Type
FENGYUN 1C DEB SSO 2025-03-16 13:09:00 0.0001859607 147.0 (m) DEBRIS
THOR ABLESTAR DEB LEO 2025-02-26 12:42:15 0.000143461 336.0 (m) DEBRIS
FENGYUN 1C DEB SSO 2025-01-06 07:07:30 0.0002640672 647.0 (m) DEBRIS
CZ-6A DEB LEO 2024-11-11 12:00:00 0.0005106498 188.0 (m) DEBRIS
FENGYUN 1C DEB SSO 2024-11-07 03:39:46 0.0005163392 734.0 (m) DEBRIS

Associated space launch

18 Low Earth Orbit communication satellites with Ku, Q and V band payloads for the G60 constellation operated by Shanghai Spacecom Satellite Technology (SSST) with funding backed by the Shanghai local government. Initial constellation will consist of 1296 satellites by 2027 with long term plans to expand it to 12000 satellites.

CZ-6A DEB was lifted into orbit during the mission ‘Long March 6A | G60 Polar Group 01’, on board a Long March 6A space rocket.

The launch took place on Aug. 6, 2024, 6:42 a.m. from Launch Complex 9A.

For more information about the launch, click the button.

Launch to space Long March 6A | G60 Polar Group 01
Long March 6A | G60 Polar Group 01

Agency: N/A

Status: Launch Successful

Launch date: Aug. 6, 2024, 6:42 a.m. UTC

Rocket: Long March 6A

Launch pad: Launch Complex 9A

Location: Taiyuan Satellite Launch Center, People's Republic of China

...

Latest news about this satellite

News about space launch
Brightness of first Chinese broadband constellation satellites alarms astronomers

The first satellites of a Chinese broadband constellation are significantly brighter than those of Western systems, posing a new challenge for astronomers.

News about space launch
Chinese rocket stage breaks up into cloud of more than 700 pieces of space debris

HELSINKI — A Chinese Long March 6A rocket’s upper stage has fragmented into a cloud of over 700 pieces of space debris, adding to concerns about long-term orbital safety. China […]

News about space launch
China's Thousand Sails Megaconstellation Kicks Off with Dangerous Debris Field

China's Thousand Sails Megaconstellation Kicks Off with Dangerous Debris Field


Newsletter sign-up

Weekly statistics, charts and insights to help you stay on top of the space industry.